Regional Weather Roundup
Issued by NWS

Home | Current Version | Previous Version | Graphics & Text | Print | Product List | Glossary On
Versions: 1 2 3 4 5 6 7 8 9 10 11 12 13 14 15 16 17 18 19 20 21 22 23 24 25 26 27 28 29 30 31 32 33 34 35 36 37 38 39 40 41 42 43 44 45 46 47 48 49 50
000
ASUS43 KLOT 110711
RWRIL

ILLINOIS REGIONAL WEATHER ROUNDUP
NATIONAL WEATHER SERVICE CHICAGO/ROMEOVILLE IL
100 AM CST SUN DEC 11 2016

NOTE: "FAIR" INDICATES FEW OR NO CLOUDS BELOW 12,000 FEET WITH NO
SIGNIFICANT WEATHER AND/OR OBSTRUCTIONS TO VISIBILITY.

* THESE STATIONS ARE NOT UNDER NWS QUALITY CONTROL. THEY ALSO MAY NOT
  REPORT WEATHER SUCH AS PRECIPITATION OR FOG.

ILZ001-002-007-009-015-016-024-110800-
NORTHWEST ILLINOIS

CITY           SKY/WX    TMP DP  RH WIND       PRES   REMARKS
MOLINE         MOCLDY    27  20  75 E9        30.11F WCI  18
STERLING*      FLURRIES  26  23  88 SE10      30.17F WCI  16
SAVANNA*       LGT SNOW  25  22  87 E8        30.15F WCI  16
$$

ILZ003-004-008-010-011-017-018-110800-
NORTH CENTRAL ILLINOIS

CITY           SKY/WX    TMP DP  RH WIND       PRES   REMARKS
ROCKFORD       LGT SNOW  24  20  84 SE12      30.22F FOG     WCI  13
FREEPORT*      CLOUDY    23  20  91 SE10      30.19F WCI  12
ROCHELLE*      CLOUDY    24  22  91 SE18      30.19F WCI  10
DE KALB*       CLOUDY    23  21  92 SE15      30.19F WCI  10
$$

ILZ005-006-012>014-019>023-110800-
NORTHEAST ILLINOIS

CITY           SKY/WX    TMP DP  RH WIND       PRES   REMARKS
CHICAGO-OHARE  LGT SNOW  24  20  84 SE10      30.24F FOG     WCI  14
CHICAGO-MIDWAY LGT SNOW  25  20  81 SE9       30.25F FOG     WCI  15
AURORA         CLOUDY    25  21  85 SE12      30.23F WCI  14
LANSING*       LGT SNOW  24  23  96 SE7       30.26F WCI  16
JOLIET*        CLOUDY    26  23  91 SE9       30.23F WCI  16
WAUKEGAN       LGT SNOW  23  20  88 S9        30.24F FOG     WCI  13
DUPAGE AIRPORT CLOUDY    24  19  81 SE8       30.22F WCI  15
KANKAKEE*      CLOUDY    25  22  89 SE13      30.24F WCI  14
WHEELING       LGT SNOW  23  20  88 S10       30.27F FOG     WCI  12
MORRIS*        CLOUDY    26  22  87 SE10      30.21F WCI  15
ROMEOVILLE*    CLOUDY    24  24  99 SE15      30.23F WCI  11
NORTHERLY ISL    N/A     24  21  88 S12         N/A  WCI  13
$$

LMZ740>746-110800-
SOUTHERN LAKE MICHIGAN

STATION/POSITION SKY/WX   TEMP    WIND        PRES    VSBY  WAVE
                          AIR SEA DIR/SP/G                  HT/PER
                          (F)     (DEG/KT/KT) (MB)    (MI)  (FT/S)
BURNHAM HARBOR             24     160/  9/ 12   N/A
CALUMET HARBOR                                1024.1F
BURNS HARBOR               24     170/  9/ 17 1025.7F
$$

ILZ025>027-034>036-040-047-049-050-058-095>099-110800-
WEST-CENTRAL ILLINOIS

CITY           SKY/WX    TMP DP  RH WIND       PRES   REMARKS
QUINCY         CLOUDY    33  18  53 S9        30.07F WCI  25
GALESBURG*     CLOUDY    29  22  76 SE8       30.10F WCI  21
MACOMB*        CLOUDY    31  22  69 SE12      30.11F WCI  22
JACKSONVILLE*  CLOUDY    33  20  59 S8        30.14F WCI  26
PITTSFIELD*    CLOUDY    35  18  51 S10       30.11F WCI  27
$$

ILZ028>032-037-038-041>044-048-051>054-059>061-110800-
CENTRAL ILLINOIS

CITY           SKY/WX    TMP DP  RH WIND       PRES   REMARKS
PONTIAC        CLOUDY    27  26  94 SE17      30.20F WCI  14
BLOOMINGTON    CLOUDY    26  22  84 SE20      30.16F WCI  12
DECATUR        CLOUDY    31  19  61 S16       30.18F WCI  20
PEORIA         CLOUDY    28  22  78 SE9       30.15F WCI  19
LACON*         CLOUDY    27  23  85 SE8       30.16F WCI  19
LINCOLN*       CLOUDY    32  22  67 S12       30.16F WCI  23
SPRINGFIELD    CLOUDY    34  20  56 S15       30.16S WCI  24
TAYLORVILLE    CLOUDY    32  19  59 S12G18    30.17F WCI  23
$$

ILZ033-039-045-046-055>057-062-063-110800-
EAST-CENTRAL ILLINOIS

CITY           SKY/WX    TMP DP  RH WIND       PRES   REMARKS
CHAMPAIGN      CLOUDY    28  20  71 SE14      30.20F WCI  17
RANTOUL*       CLOUDY    28  25  86 SE15      30.21F WCI  17
MATTOON        CLOUDY    30  18  60 S12       30.21F WCI  20
PARIS*         CLOUDY    28  21  74 SE13      30.24F WCI  18
$$

ILZ079-100>102-110800-
SOUTHWEST ILLINOIS

CITY           SKY/WX    TMP DP  RH WIND       PRES   REMARKS
ALTON          CLOUDY    35  20  54 SE8       30.17F WCI  28
BELLEVILLE     CLOUDY    37  19  48 S12       30.17F WCI  29
CAHOKIA*       CLOUDY    36  19  50 S7        30.17F WCI  30
SPARTA*        CLOUDY    37  18  45 S13G18    30.20F WCI  29
$$

ILZ064>066-069>071-074>076-080>082-084>086-088>090-092>094-110800-
SOUTH-CENTRAL ILLINOIS

CITY           SKY/WX    TMP DP  RH WIND       PRES   REMARKS
CARBONDALE     CLOUDY    37  19  48 S13       30.24F WCI  29
CAIRO*         CLOUDY    37  20  50 S10       30.27S WCI  30
EFFINGHAM*     CLOUDY    32  23  69 SE9       30.25F WCI  24
MARION         CLOUDY    39  18  41 S13       30.25F WCI  32
CENTRALIA*     CLOUDY    35  22  58 S9        30.20F WCI  27
SALEM*         CLOUDY    35  19  50 SE8       30.21F WCI  29
METROPOLIS*    CLOUDY    37  20  49 CALM      30.27F
$$

ILZ067-068-072-073-078-083-087-091-110800-
SOUTHEAST ILLINOIS

CITY           SKY/WX    TMP DP  RH WIND       PRES   REMARKS
LAWRENCEVILLE  CLOUDY    31  21  66 E8        30.29F WCI  23
FLORA*         CLOUDY    34  22  60 SE9       30.25F WCI  26
FAIRFIELD*     CLOUDY    33  21  60 SE6       30.25F WCI  28
HARRISBURG*    CLOUDY    34  26  70 SE5       30.27F WCI  30
ROBINSON*      CLOUDY    30  20  66 SE7       30.29F WCI  23
CARMI*         CLOUDY    33  24  70 SE7       30.26F WCI  26
$$

ABBREVIATIONS USED IN REMARKS
   TC - TEMPERATURE IN CELSIUS
  WCI - WIND CHILL INDEX
   HX - HEAT INDEX
  VSB - VISIBILITY
$$





USA.gov is the U.S. government's official web portal to all federal, state and local government web resources and services.